^^
Saratoga-Weather Station Historical Data
Daily Summary for March 8, 2020 Units:  English    Metric   Both
Daily Weekly Monthly Yearly Custom
  High: Low: Average:
Temperature: 77.4 °F 44.6 °F 61.9 °F
Dew Point: 49.1 °F 41 °F 44.8 °F
Humidity: 90% 33% 57%
Wind Speed: 6mph 0mph 0.7mph
Wind Gust: 8mph - -
Wind- - SSE
Pressure: 30.1 in 29.9 in -
Precipitation: 0 in    
Historical Graphs
 
 
Tabular Data for March 8, 2020
Time Temperature Dew Point Pressure Wind Wind Speed Wind Gust Humidity Rainfall Rate (Hourly) solar
00:01 52.5 °F 41.9 °F 30.1 in Calm     67% 0 in 0 W/m2
00:06 52.5 °F 42.3 °F 30.1 in Calm     68% 0 in 0 W/m2
00:11 52.3 °F 42.1 °F 30.1 in Calm     68% 0 in 0 W/m2
00:16 52.3 °F 42.1 °F 30.1 in Calm     68% 0 in 0 W/m2
00:21 52.3 °F 42.1 °F 30.1 in Calm     68% 0 in 0 W/m2
00:26 52.2 °F 42.3 °F 30.1 in Calm     69% 0 in 0 W/m2
00:31 52.2 °F 42.6 °F 30.1 in Calm     70% 0 in 0 W/m2
00:36 52.2 °F 42.6 °F 30.1 in Calm     70% 0 in 0 W/m2
00:41 52.3 °F 42.8 °F 30.1 in Calm     70% 0 in 0 W/m2
00:46 52.3 °F 42.8 °F 30.1 in Calm     70% 0 in 0 W/m2
00:51 52.3 °F 42.8 °F 30.1 in Calm     70% 0 in 0 W/m2
00:56 52.2 °F 42.6 °F 30.1 in Calm     70% 0 in 0 W/m2
01:01 52.2 °F 42.6 °F 30.1 in Calm     70% 0 in 0 W/m2
01:06 52 °F 42.4 °F 30.1 in Calm     70% 0 in 0 W/m2
01:11 51.8 °F 42.6 °F 30.1 in Calm     71% 0 in 0 W/m2
01:16 51.6 °F 42.4 °F 30.1 in Calm     71% 0 in 0 W/m2
01:21 51.3 °F 42.6 °F 30.1 in Calm     72% 0 in 0 W/m2
01:26 51.3 °F 42.6 °F 30.1 in Calm     72% 0 in 0 W/m2
01:31 51.1 °F 42.8 °F 30.1 in Calm     73% 0 in 0 W/m2
01:37 50.7 °F 42.4 °F 30.1 in Calm     73% 0 in 0 W/m2
01:42 50.5 °F 42.3 °F 30.1 in Calm     73% 0 in 0 W/m2
01:47 50.4 °F 42.4 °F 30.1 in Calm     74% 0 in 0 W/m2
01:52 50.2 °F 42.6 °F 30.1 in Calm     75% 0 in 0 W/m2
01:57 49.8 °F 42.3 °F 30.1 in Calm   1 mph 75% 0 in 0 W/m2
02:02 49.6 °F 42.4 °F 30.1 in Calm     76% 0 in 0 W/m2
02:07 49.6 °F 42.4 °F 30.1 in Calm   1 mph 76% 0 in 0 W/m2
02:12 49.5 °F 42.3 °F 30.1 in Calm     76% 0 in 0 W/m2
02:17 49.3 °F 42.1 °F 30.1 in Calm     76% 0 in 0 W/m2
02:22 49.1 °F 41.9 °F 30.1 in Calm     76% 0 in 0 W/m2
02:27 48.9 °F 42.1 °F 30.1 in Calm     77% 0 in 0 W/m2
02:32 48.7 °F 41.9 °F 30.1 in Calm     77% 0 in 0 W/m2
02:37 48.7 °F 41.9 °F 30.1 in Calm     77% 0 in 0 W/m2
02:42 48.6 °F 42.1 °F 30.1 in Calm     78% 0 in 0 W/m2
02:47 48.6 °F 42.1 °F 30.1 in Calm     78% 0 in 0 W/m2
02:52 48.4 °F 42.3 °F 30.1 in Calm     79% 0 in 0 W/m2
02:57 48.4 °F 42.3 °F 30.1 in Calm     79% 0 in 0 W/m2
03:02 48.4 °F 42.3 °F 30.1 in Calm     79% 0 in 0 W/m2
03:07 48.2 °F 42.1 °F 30.1 in Calm     79% 0 in 0 W/m2
03:12 48.2 °F 42.3 °F 30.1 in Calm     80% 0 in 0 W/m2
03:17 48 °F 42.1 °F 30.1 in Calm     80% 0 in 0 W/m2
03:22 48 °F 42.1 °F 30.1 in Calm     80% 0 in 0 W/m2
03:27 48 °F 42.1 °F 30.1 in Calm     80% 0 in 0 W/m2
03:32 47.8 °F 41.9 °F 30.1 in Calm     80% 0 in 0 W/m2
03:37 47.8 °F 41.9 °F 30.1 in Calm     80% 0 in 0 W/m2
03:42 47.8 °F 42.3 °F 30.1 in Calm     81% 0 in 0 W/m2
03:47 47.7 °F 42.1 °F 30.1 in Calm     81% 0 in 0 W/m2
03:53 47.7 °F 42.1 °F 30.1 in Calm     81% 0 in 0 W/m2
03:58 47.7 °F 42.1 °F 30.1 in Calm     81% 0 in 0 W/m2
04:03 47.5 °F 41.9 °F 30.1 in Calm     81% 0 in 0 W/m2
04:08 47.3 °F 41.7 °F 30.1 in Calm     81% 0 in 0 W/m2
04:13 47.1 °F 41.9 °F 30.1 in Calm     82% 0 in 0 W/m2
04:18 46.9 °F 41.7 °F 30.1 in Calm     82% 0 in 0 W/m2
04:23 46.8 °F 41.9 °F 30.1 in Calm     83% 0 in 0 W/m2
04:28 46.6 °F 41.7 °F 30.1 in Calm     83% 0 in 0 W/m2
04:33 46.6 °F 42.1 °F 30.1 in Calm     84% 0 in 0 W/m2
04:38 46.4 °F 41.5 °F 30.1 in Calm     83% 0 in 0 W/m2
04:43 46.2 °F 41.7 °F 30.1 in Calm     84% 0 in 0 W/m2
04:48 46.2 °F 41.7 °F 30 in Calm     84% 0 in 0 W/m2
04:53 46 °F 41.5 °F 30 in Calm     84% 0 in 0 W/m2
04:58 46 °F 41.5 °F 30.1 in Calm     84% 0 in 0 W/m2
05:03 45.9 °F 41.4 °F 30.1 in Calm     84% 0 in 0 W/m2
05:08 45.7 °F 41.4 °F 30.1 in Calm     85% 0 in 0 W/m2
05:13 45.3 °F 41 °F 30.1 in Calm     85% 0 in 0 W/m2
05:18 45.3 °F 41 °F 30.1 in Calm     85% 0 in 0 W/m2
05:23 45.1 °F 41.2 °F 30.1 in Calm     86% 0 in 0 W/m2
05:28 45.1 °F 41.2 °F 30 in Calm     86% 0 in 0 W/m2
05:33 45 °F 41.4 °F 30 in Calm     87% 0 in 0 W/m2
05:38 45.1 °F 41.5 °F 30 in Calm     87% 0 in 0 W/m2
05:43 45.1 °F 41.7 °F 30 in Calm     88% 0 in 0 W/m2
05:48 45.1 °F 41.7 °F 30 in Calm     88% 0 in 0 W/m2
05:53 45.1 °F 41.7 °F 30 in Calm     88% 0 in 0 W/m2
05:58 45 °F 41.5 °F 30 in Calm     88% 0 in 0 W/m2
06:03 45 °F 41.5 °F 30 in Calm     88% 0 in 0 W/m2
06:08 44.8 °F 41.4 °F 30.1 in Calm     88% 0 in 5 W/m2
06:13 44.8 °F 41.4 °F 30 in Calm     88% 0 in 7 W/m2
06:18 44.8 °F 41.7 °F 30 in Calm     89% 0 in 11 W/m2
06:23 44.8 °F 41.7 °F 30 in Calm     89% 0 in 14 W/m2
06:28 44.8 °F 41.7 °F 30.1 in Calm     89% 0 in 18 W/m2
06:33 44.6 °F 41.5 °F 30.1 in Calm     89% 0 in 18 W/m2
06:38 44.6 °F 41.9 °F 30.1 in Calm     90% 0 in 21 W/m2
06:43 44.8 °F 42.1 °F 30.1 in Calm     90% 0 in 23 W/m2
06:48 44.8 °F 42.1 °F 30.1 in Calm     90% 0 in 26 W/m2
06:53 45 °F 42.3 °F 30.1 in Calm     90% 0 in 26 W/m2
06:58 45 °F 42.3 °F 30.1 in Calm     90% 0 in 28 W/m2
07:03 45.1 °F 42.4 °F 30.1 in Calm     90% 0 in 32 W/m2
07:08 45.3 °F 42.6 °F 30.1 in Calm     90% 0 in 33 W/m2
07:13 45.5 °F 42.4 °F 30.1 in Calm     89% 0 in 37 W/m2
07:18 45.7 °F 42.6 °F 30.1 in Calm     89% 0 in 39 W/m2
07:23 45.9 °F 42.8 °F 30.1 in Calm     89% 0 in 39 W/m2
07:28 46.2 °F 42.8 °F 30.1 in Calm     88% 0 in 40 W/m2
07:33 46.8 °F 43.3 °F 30.1 in Calm     88% 0 in 40 W/m2
07:38 47.1 °F 43.5 °F 30.1 in Calm     87% 0 in 42 W/m2
07:43 47.7 °F 43.7 °F 30.1 in Calm     86% 0 in 67 W/m2
07:48 48 °F 44.1 °F 30.1 in Calm     86% 0 in 49 W/m2
07:54 48.6 °F 44.6 °F 30.1 in Calm     86% 0 in 107 W/m2
07:59 49.1 °F 44.8 °F 30.1 in Calm     85% 0 in 248 W/m2
08:04 49.8 °F 45.5 °F 30.1 in Calm     85% 0 in 257 W/m2
08:09 51.3 °F 46 °F 30.1 in NNW 0.9 mph 2 mph 82% 0 in 272 W/m2
08:14 52.5 °F 46.2 °F 30.1 in Calm   1 mph 79% 0 in 281 W/m2
08:19 53.4 °F 45.7 °F 30.1 in ENE 2 mph 3 mph 75% 0 in 288 W/m2
08:24 54.1 °F 45.3 °F 30.1 in NE 0.9 mph 2 mph 72% 0 in 323 W/m2
08:29 54.7 °F 45.9 °F 30.1 in ENE 2 mph 2 mph 72% 0 in 292 W/m2
08:34 55.6 °F 46 °F 30.1 in Calm   3 mph 70% 0 in 330 W/m2
08:39 55.9 °F 45.9 °F 30.1 in ENE 0.9 mph 2 mph 69% 0 in 325 W/m2
08:44 56.1 °F 46 °F 30.1 in East 2 mph 2 mph 69% 0 in 302 W/m2
08:49 56.1 °F 45.7 °F 30.1 in Calm   2 mph 68% 0 in 287 W/m2
08:54 56.1 °F 46 °F 30.1 in Calm     69% 0 in 311 W/m2
08:59 56.5 °F 46 °F 30.1 in Calm   1 mph 68% 0 in 353 W/m2
09:04 56.8 °F 46.4 °F 30.1 in NE 0.9 mph 2 mph 68% 0 in 345 W/m2
09:09 57 °F 46.2 °F 30.1 in Calm   2 mph 67% 0 in 420 W/m2
09:14 57.6 °F 46.8 °F 30.1 in Calm   1 mph 67% 0 in 432 W/m2
09:19 58.1 °F 47.1 °F 30.1 in East 2 mph 2 mph 67% 0 in 457 W/m2
09:24 58.8 °F 47.5 °F 30.1 in ESE 0.9 mph 1 mph 66% 0 in 454 W/m2
09:29 59.5 °F 47.3 °F 30.1 in NNE 2 mph 2 mph 64% 0 in 480 W/m2
09:34 59.9 °F 47.7 °F 30.1 in East 2 mph 2 mph 64% 0 in 475 W/m2
09:39 60.4 °F 47.3 °F 30.1 in NNE 0.9 mph 3 mph 62% 0 in 487 W/m2
09:44 61 °F 47.5 °F 30.1 in ENE 2 mph 3 mph 61% 0 in 520 W/m2
09:49 61.5 °F 47.1 °F 30.1 in ENE 0.9 mph 3 mph 59% 0 in 497 W/m2
09:54 61.7 °F 46.8 °F 30.1 in East 2 mph 3 mph 58% 0 in 540 W/m2
09:59 62.1 °F 47.1 °F 30 in Calm   1 mph 58% 0 in 557 W/m2
10:04 62.2 °F 45.9 °F 30 in NE 0.9 mph 2 mph 55% 0 in 557 W/m2
10:09 62.4 °F 45.5 °F 30 in Calm   2 mph 54% 0 in 88 W/m2
10:14 63.1 °F 47.1 °F 30 in East 2 mph 3 mph 56% 0 in 566 W/m2
10:19 63.7 °F 47.3 °F 30 in ENE 2 mph 3 mph 55% 0 in 598 W/m2
10:24 64 °F 47.5 °F 30 in ESE 2 mph 2 mph 55% 0 in 580 W/m2
10:29 64.9 °F 47.5 °F 30 in SE 2 mph 4 mph 53% 0 in 613 W/m2
10:34 65.5 °F 47.8 °F 30 in SE 0.9 mph 1 mph 53% 0 in 626 W/m2
10:39 66 °F 48.9 °F 30 in NE 2 mph 5 mph 54% 0 in 643 W/m2
10:44 66 °F 48.4 °F 30 in NE 0.9 mph 2 mph 53% 0 in 654 W/m2
10:49 66.4 °F 48.2 °F 30 in Calm   2 mph 52% 0 in 657 W/m2
10:54 66.7 °F 48.6 °F 30 in NNE 2 mph 3 mph 52% 0 in 671 W/m2
10:59 66.7 °F 48.6 °F 30 in NE 0.9 mph 2 mph 52% 0 in 679 W/m2
11:04 67.1 °F 46.2 °F 30 in NE 2.9 mph 5 mph 47% 0 in 666 W/m2
11:09 66.9 °F 47.1 °F 30 in SSW 2 mph 2 mph 49% 0 in 682 W/m2
11:14 67.6 °F 48.4 °F 30 in Calm   5 mph 50% 0 in 714 W/m2
11:19 68.2 °F 46.6 °F 30 in East 4 mph 4 mph 46% 0 in 701 W/m2
11:24 68.4 °F 47.3 °F 30 in NE 4 mph 4 mph 47% 0 in 714 W/m2
11:29 68.7 °F 47.1 °F 30 in SE 2 mph 4 mph 46% 0 in 657 W/m2
11:34 68.9 °F 46.8 °F 30 in East 0.9 mph 4 mph 45% 0 in 754 W/m2
11:39 69.3 °F 46.9 °F 30 in East 2 mph 3 mph 45% 0 in 673 W/m2
11:44 69.6 °F 46.8 °F 30 in Calm   2 mph 44% 0 in 728 W/m2
11:49 69.6 °F 45.5 °F 30 in West 2.9 mph 3 mph 42% 0 in 800 W/m2
11:54 69.6 °F 45.5 °F 30 in Calm   3 mph 42% 0 in 605 W/m2
11:59 70 °F 46.4 °F 30 in NE 2 mph 5 mph 43% 0 in 281 W/m2
12:04 69.6 °F 46.2 °F 30 in Calm   1 mph 43% 0 in 450 W/m2
12:09 69.6 °F 45 °F 30 in NE 0.9 mph 3 mph 41% 0 in 752 W/m2
12:14 69.6 °F 46.2 °F 30 in East 2 mph 4 mph 43% 0 in 914 W/m2
12:19 70.2 °F 47.3 °F 30 in ESE 2 mph 4 mph 44% 0 in 773 W/m2
12:24 70.7 °F 45.9 °F 30 in NNW 0.9 mph 3 mph 41% 0 in 559 W/m2
12:29 71.2 °F 45.7 °F 30 in SE 2 mph 2 mph 40% 0 in 367 W/m2
12:34 71.1 °F 46.2 °F 30 in East 2 mph 3 mph 41% 0 in 592 W/m2
12:39 70.9 °F 44.8 °F 30 in NW 0.9 mph 2 mph 39% 0 in 364 W/m2
12:44 71.1 °F 44.2 °F 30 in NE 0.9 mph 2 mph 38% 0 in 431 W/m2
12:49 71.2 °F 43.7 °F 30 in East 2 mph 4 mph 37% 0 in 615 W/m2
12:54 71.4 °F 43.7 °F 30 in NNW 0.9 mph 3 mph 37% 0 in 675 W/m2
12:59 71.8 °F 41.9 °F 30 in ENE 2 mph 3 mph 34% 0 in 621 W/m2
13:04 71.8 °F 43.3 °F 30 in NW 4 mph 4 mph 36% 0 in 691 W/m2
13:09 72 °F 42.8 °F 30 in North 0.9 mph 3 mph 35% 0 in 737 W/m2
13:14 72.1 °F 44.4 °F 30 in Calm   3 mph 37% 0 in 710 W/m2
13:19 72.3 °F 44.6 °F 30 in ESE 0.9 mph 2 mph 37% 0 in 758 W/m2
13:24 72.7 °F 45.7 °F 30 in ENE 2.9 mph 7 mph 38% 0 in 700 W/m2
13:29 72.9 °F 44.4 °F 30 in ESE 2.9 mph 5 mph 36% 0 in 729 W/m2
13:34 73 °F 43.7 °F 30 in WNW 2 mph 6 mph 35% 0 in 793 W/m2
13:39 73 °F 44.4 °F 30 in NNW 0.9 mph 3 mph 36% 0 in 868 W/m2
13:44 73.2 °F 46 °F 30 in NNW 2 mph 3 mph 38% 0 in 722 W/m2
13:49 73.4 °F 45.5 °F 30 in ENE 0.9 mph 3 mph 37% 0 in 831 W/m2
13:54 73.6 °F 45.7 °F 30 in Calm   3 mph 37% 0 in 812 W/m2
13:59 74.1 °F 45.5 °F 30 in NNW 0.9 mph 3 mph 36% 0 in 830 W/m2
14:05 74.5 °F 45 °F 30 in East 4 mph 6 mph 35% 0 in 911 W/m2
14:10 74.7 °F 44.4 °F 30 in ENE 0.9 mph 4 mph 34% 0 in 928 W/m2
14:15 74.5 °F 45 °F 30 in NE 2 mph 4 mph 35% 0 in 846 W/m2
14:20 74.8 °F 46.8 °F 30 in ESE 2.9 mph 4 mph 37% 0 in 800 W/m2
14:25 74.8 °F 46 °F 30 in ESE 0.9 mph 5 mph 36% 0 in 733 W/m2
14:30 74.8 °F 48.2 °F 30 in ESE 6 mph 7 mph 39% 0 in 858 W/m2
14:35 74.8 °F 43.9 °F 30 in ENE 4 mph 4 mph 33% 0 in 494 W/m2
14:40 74.5 °F 45 °F 30 in NE 0.9 mph 3 mph 35% 0 in 902 W/m2
14:45 74.3 °F 45 °F 30 in Calm   3 mph 35% 0 in 715 W/m2
14:50 74.5 °F 43.5 °F 30 in NNW 2 mph 2 mph 33% 0 in 856 W/m2
14:55 74.3 °F 44.1 °F 30 in NW 2.9 mph 5 mph 34% 0 in 747 W/m2
15:00 74.5 °F 45.9 °F 30 in Calm   2 mph 36% 0 in 735 W/m2
15:05 74.8 °F 48.2 °F 30 in East 0.9 mph 4 mph 39% 0 in 768 W/m2
15:10 75.4 °F 46.6 °F 30 in ESE 0.9 mph 3 mph 36% 0 in 715 W/m2
15:15 75.2 °F 47.1 °F 30 in East 2 mph 4 mph 37% 0 in 432 W/m2
15:20 74.8 °F 46 °F 30 in ENE 2 mph 2 mph 36% 0 in 501 W/m2
15:25 74.5 °F 45 °F 30 in East 0.9 mph 4 mph 35% 0 in 531 W/m2
15:30 74.5 °F 45.9 °F 30 in ESE 2.9 mph 8 mph 36% 0 in 513 W/m2
15:35 74.7 °F 48 °F 30 in East 0.9 mph 3 mph 39% 0 in 524 W/m2
15:40 75 °F 45.5 °F 30 in NE 2 mph 8 mph 35% 0 in 663 W/m2
15:45 75.6 °F 45.1 °F 30 in ENE 2.9 mph 6 mph 34% 0 in 826 W/m2
15:50 75.6 °F 45.1 °F 30 in NW 0.9 mph 2 mph 34% 0 in 559 W/m2
15:55 75.6 °F 46 °F 30 in SW 0.9 mph 3 mph 35% 0 in 612 W/m2
16:00 75.4 °F 47.3 °F 30 in SSE 0.9 mph 4 mph 37% 0 in 519 W/m2
16:05 75.4 °F 46.6 °F 30 in Calm   4 mph 36% 0 in 636 W/m2
16:10 75.7 °F 46.2 °F 30 in ENE 2 mph 6 mph 35% 0 in 663 W/m2
16:15 75.9 °F 46.2 °F 30 in WSW 2.9 mph 3 mph 35% 0 in 689 W/m2
16:20 75.9 °F 47.1 °F 30 in Calm   2 mph 36% 0 in 297 W/m2
16:25 76.1 °F 47.1 °F 30 in Calm   2 mph 36% 0 in 835 W/m2
16:30 76.6 °F 47.7 °F 30 in Calm   2 mph 36% 0 in 357 W/m2
16:35 76.5 °F 48.2 °F 30 in WNW 0.9 mph 3 mph 37% 0 in 357 W/m2
16:40 76.3 °F 45.9 °F 30 in NW 0.9 mph 2 mph 34% 0 in 309 W/m2
16:46 76.3 °F 47.3 °F 30 in West 0.9 mph 3 mph 36% 0 in 705 W/m2
16:51 76.5 °F 47.5 °F 30 in SSW 0.9 mph 2 mph 36% 0 in 446 W/m2
16:56 76.6 °F 48.4 °F 30 in West 0.9 mph 2 mph 37% 0 in 352 W/m2
17:01 76.5 °F 47.5 °F 30 in Calm   1 mph 36% 0 in 380 W/m2
17:06 76.6 °F 48.4 °F 30 in ESE 2 mph 3 mph 37% 0 in 257 W/m2
17:11 76.3 °F 45.9 °F 29.9 in Calm   1 mph 34% 0 in 297 W/m2
17:16 76.3 °F 46.6 °F 29.9 in East 2 mph 2 mph 35% 0 in 673 W/m2
17:21 76.5 °F 48.2 °F 29.9 in Calm   2 mph 37% 0 in 545 W/m2
17:26 76.6 °F 47.7 °F 29.9 in ENE 2 mph 4 mph 36% 0 in 513 W/m2
17:31 76.8 °F 46.4 °F 29.9 in Calm   2 mph 34% 0 in 473 W/m2
17:36 77.2 °F 46.6 °F 29.9 in Calm   4 mph 34% 0 in 448 W/m2
17:41 77.2 °F 47.5 °F 29.9 in East 0.9 mph 4 mph 35% 0 in 418 W/m2
17:46 77 °F 47.3 °F 29.9 in Calm   3 mph 35% 0 in 404 W/m2
17:51 77.4 °F 49.1 °F 29.9 in East 0.9 mph 1 mph 37% 0 in 279 W/m2
17:56 76.8 °F 46.4 °F 29.9 in SSE 0.9 mph 3 mph 34% 0 in 202 W/m2
18:01 76.5 °F 46 °F 29.9 in NNE 2 mph 4 mph 34% 0 in 204 W/m2
18:06 75.9 °F 45.5 °F 29.9 in NE 0.9 mph 4 mph 34% 0 in 178 W/m2
18:11 75.6 °F 46 °F 29.9 in NNW 2 mph 3 mph 35% 0 in 165 W/m2
18:16 75.4 °F 45.9 °F 29.9 in NNW 0.9 mph 4 mph 35% 0 in 144 W/m2
18:21 74.8 °F 45.3 °F 29.9 in West 0.9 mph 3 mph 35% 0 in 151 W/m2
18:26 74.5 °F 45.9 °F 29.9 in East 2 mph 3 mph 36% 0 in 151 W/m2
18:31 74.5 °F 46.6 °F 29.9 in WNW 2 mph 2 mph 37% 0 in 341 W/m2
18:36 74.8 °F 46.8 °F 29.9 in NNW 2 mph 3 mph 37% 0 in 199 W/m2
18:42 75 °F 46.2 °F 29.9 in Calm   6 mph 36% 0 in 264 W/m2
18:47 75.4 °F 45.9 °F 29.9 in North 0.9 mph 2 mph 35% 0 in 341 W/m2
18:52 75.6 °F 47.5 °F 29.9 in ENE 2.9 mph 6 mph 37% 0 in 151 W/m2
18:57 75.4 °F 46.6 °F 29.9 in ENE 0.9 mph 2 mph 36% 0 in 146 W/m2
19:02 75.2 °F 45.7 °F 29.9 in ENE 2 mph 4 mph 35% 0 in 90 W/m2
19:07 74.8 °F 46 °F 29.9 in NW 2.9 mph 3 mph 36% 0 in 100 W/m2
19:12 74.5 °F 45.9 °F 29.9 in Calm   4 mph 36% 0 in 207 W/m2
19:17 74.1 °F 45.5 °F 29.9 in North 0.9 mph 3 mph 36% 0 in 109 W/m2
19:22 73.9 °F 46 °F 29.9 in Calm   3 mph 37% 0 in 121 W/m2
19:27 73.8 °F 45.1 °F 29.9 in WNW 2.9 mph 5 mph 36% 0 in 100 W/m2
19:32 73.8 °F 45.9 °F 29.9 in Calm   1 mph 37% 0 in 102 W/m2
19:37 73.4 °F 46.2 °F 29.9 in NW 2 mph 5 mph 38% 0 in 181 W/m2
19:42 73.6 °F 47.1 °F 29.9 in Calm   2 mph 39% 0 in 109 W/m2
19:47 73.6 °F 46.4 °F 29.9 in ENE 0.9 mph 4 mph 38% 0 in 88 W/m2
19:52 73.2 °F 46 °F 29.9 in ESE 2 mph 2 mph 38% 0 in 72 W/m2
19:57 72.9 °F 45.7 °F 29.9 in North 2 mph 4 mph 38% 0 in 69 W/m2
20:02 72.7 °F 45.7 °F 29.9 in Calm   1 mph 38% 0 in 65 W/m2
20:07 72.3 °F 44.6 °F 29.9 in Calm   4 mph 37% 0 in 62 W/m2
20:12 72.1 °F 45.1 °F 29.9 in Calm   1 mph 38% 0 in 67 W/m2
20:17 72 °F 45.7 °F 29.9 in North 2 mph 2 mph 39% 0 in 47 W/m2
20:22 71.8 °F 44.8 °F 29.9 in NNE 0.9 mph 2 mph 38% 0 in 28 W/m2
20:27 71.4 °F 44.4 °F 29.9 in Calm   3 mph 38% 0 in 21 W/m2
20:32 71.1 °F 44.8 °F 29.9 in East 0.9 mph 1 mph 39% 0 in 14 W/m2
20:37 70.9 °F 46 °F 29.9 in West 2 mph 2 mph 41% 0 in 11 W/m2
20:42 70.2 °F 46.6 °F 29.9 in Calm   1 mph 43% 0 in 11 W/m2
20:47 69.6 °F 46.8 °F 29.9 in NW 0.9 mph 1 mph 44% 0 in 9 W/m2
20:52 68.7 °F 47.7 °F 29.9 in WNW 0.9 mph 1 mph 47% 0 in 7 W/m2
20:57 68 °F 46.9 °F 29.9 in WNW 0.9 mph 1 mph 47% 0 in 5 W/m2
21:02 67.3 °F 46.4 °F 29.9 in WNW 0.9 mph 1 mph 47% 0 in 0 W/m2
21:07 66.6 °F 46.2 °F 29.9 in WNW 0.9 mph 1 mph 48% 0 in 0 W/m2
21:12 66 °F 45.7 °F 29.9 in Calm   2 mph 48% 0 in 0 W/m2
21:17 65.7 °F 45.5 °F 29.9 in Calm   2 mph 48% 0 in 0 W/m2
21:22 65.3 °F 44.6 °F 29.9 in WNW 0.9 mph 2 mph 47% 0 in 0 W/m2
21:27 64.9 °F 45.3 °F 29.9 in Calm   1 mph 49% 0 in 0 W/m2
21:32 64.8 °F 45.1 °F 29.9 in Calm   2 mph 49% 0 in 0 W/m2
21:37 64.6 °F 45.5 °F 29.9 in Calm     50% 0 in 0 W/m2
21:42 64.2 °F 45.1 °F 29.9 in Calm   1 mph 50% 0 in 0 W/m2
21:47 64 °F 45.5 °F 29.9 in Calm   1 mph 51% 0 in 0 W/m2
21:52 63.7 °F 45.7 °F 29.9 in WNW 0.9 mph 2 mph 52% 0 in 0 W/m2
21:57 63.5 °F 45 °F 29.9 in Calm     51% 0 in 0 W/m2
22:02 63.1 °F 44.8 °F 29.9 in Calm     51% 0 in 0 W/m2
22:07 63.1 °F 44.8 °F 29.9 in Calm   1 mph 51% 0 in 0 W/m2
22:12 63 °F 45.1 °F 29.9 in Calm     52% 0 in 0 W/m2
22:17 62.6 °F 45.1 °F 29.9 in Calm   1 mph 53% 0 in 0 W/m2
22:22 62.4 °F 45.1 °F 29.9 in West 0.9 mph 2 mph 53% 0 in 0 W/m2
22:27 62.4 °F 43.5 °F 29.9 in West 0.9 mph 3 mph 50% 0 in 0 W/m2
22:32 62.6 °F 44.8 °F 29.9 in Calm     52% 0 in 0 W/m2
22:37 62.6 °F 44.8 °F 29.9 in Calm   2 mph 52% 0 in 0 W/m2
22:42 62.4 °F 45.1 °F 29.9 in Calm     53% 0 in 0 W/m2
22:47 62.2 °F 45 °F 29.9 in Calm   1 mph 53% 0 in 0 W/m2
22:52 62.1 °F 45.1 °F 29.9 in West 0.9 mph 1 mph 54% 0 in 0 W/m2
22:57 62.1 °F 45.7 °F 29.9 in West 0.9 mph 1 mph 55% 0 in 0 W/m2
23:03 62.1 °F 45.1 °F 29.9 in Calm   1 mph 54% 0 in 0 W/m2
23:08 61.9 °F 46 °F 29.9 in West 0.9 mph 1 mph 56% 0 in 0 W/m2
23:13 61.9 °F 46 °F 29.9 in Calm     56% 0 in 0 W/m2
23:18 61.7 °F 45.3 °F 29.9 in West 0.9 mph 2 mph 55% 0 in 0 W/m2
23:23 61.5 °F 45.7 °F 29.9 in Calm     56% 0 in 0 W/m2
23:28 61.3 °F 45.5 °F 29.9 in Calm     56% 0 in 0 W/m2
23:33 61.3 °F 46 °F 29.9 in Calm     57% 0 in 0 W/m2
23:38 61.2 °F 45.9 °F 29.9 in Calm     57% 0 in 0 W/m2
23:43 61.2 °F 45.9 °F 29.9 in Calm     57% 0 in 0 W/m2
23:48 61 °F 46.6 °F 29.9 in Calm     59% 0 in 0 W/m2
23:53 61 °F 46.6 °F 29.9 in Calm     59% 0 in 0 W/m2
23:58 61 °F 45.7 °F 29.9 in Calm     57% 0 in 0 W/m2
Juneau County Weather
Compliments of Weather Underground - 4 mb